#�ϑ�����,���ϕ���,���ϕ���,�ő啗��,�ő啗����������,�ő�u�ԕ���,�ő�u�ԕ�����������
#(�N����),(m/s)   ,(16����),(m/s)   ,(16����)        ,(m/s)       ,(16����)            
2015/6/8 0:01,3,3,3.1,3,4.5,3
2015/6/8 0:02,3.1,3,3.1,3,4.8,3
2015/6/8 0:03,3.2,3,3.2,3,4.2,2
2015/6/8 0:04,3.3,3,3.3,3,4.7,4
2015/6/8 0:05,3.2,3,3.3,3,3.9,3
2015/6/8 0:06,3.2,3,3.3,3,4.5,4
2015/6/8 0:07,3.2,3,3.3,3,3.8,3
2015/6/8 0:08,3.2,3,3.2,3,4.1,3
2015/6/8 0:09,2.9,3,3.1,3,4.2,4
2015/6/8 0:10,2.7,3,2.9,3,3.6,4
2015/6/8 0:11,2.7,3,2.8,3,3.6,3
2015/6/8 0:12,2.6,3,2.7,3,3.7,3
2015/6/8 0:13,2.6,3,2.6,3,4.2,3
2015/6/8 0:14,2.6,3,2.6,3,5.2,3
2015/6/8 0:15,2.6,3,2.6,3,3.3,3
2015/6/8 0:16,2.6,3,2.6,3,3.7,2
2015/6/8 0:17,2.6,3,2.6,3,4.4,4
2015/6/8 0:18,2.8,3,2.8,3,5.5,3
2015/6/8 0:19,3,3,3,3,4.7,3
2015/6/8 0:20,3.1,3,3.1,3,5,3
2015/6/8 0:21,3.1,3,3.1,3,3.7,2
2015/6/8 0:22,3.1,3,3.2,3,4.4,3
2015/6/8 0:23,3.1,3,3.1,3,4.2,2
2015/6/8 0:24,3,3,3.1,3,4.4,2
2015/6/8 0:25,3.1,3,3.1,3,4.5,2
2015/6/8 0:26,3.1,2,3.1,3,4.8,3
2015/6/8 0:27,3.1,2,3.1,3,4.7,3
2015/6/8 0:28,3,3,3.1,3,3.7,4
2015/6/8 0:29,2.8,2,2.9,3,3.1,3
2015/6/8 0:30,2.8,2,2.8,3,4.9,3
2015/6/8 0:31,2.8,2,2.8,3,4.2,3
2015/6/8 0:32,2.8,2,2.8,3,2.9,1
2015/6/8 0:33,2.8,2,2.8,3,4.7,2
2015/6/8 0:34,2.7,2,2.8,3,4.1,3
2015/6/8 0:35,2.6,2,2.7,3,3.5,1
2015/6/8 0:36,2.5,2,2.6,2,3.9,2
2015/6/8 0:37,2.5,2,2.5,2,3.6,3
2015/6/8 0:38,2.5,2,2.5,3,4.1,2
2015/6/8 0:39,2.5,2,2.5,2,3.7,2
2015/6/8 0:40,2.5,2,2.6,2,4.1,2
2015/6/8 0:41,2.3,2,2.5,2,3,2
2015/6/8 0:42,2.4,2,2.4,2,4.1,2
2015/6/8 0:43,2.5,2,2.5,2,4.1,3
2015/6/8 0:44,2.6,2,2.6,2,5.7,4
2015/6/8 0:45,2.8,3,2.8,3,5.2,5
2015/6/8 0:46,2.9,3,2.9,3,4.5,3
2015/6/8 0:47,2.8,3,2.9,3,3.3,3
2015/6/8 0:48,2.8,3,2.8,3,4.1,3
2015/6/8 0:49,2.9,3,2.9,3,3.8,4
2015/6/8 0:50,2.9,3,2.9,3,4.3,2
2015/6/8 0:51,3,3,3,3,3.8,3
2015/6/8 0:52,3,3,3,3,3.2,2
2015/6/8 0:53,3,3,3,3,4.1,4
2015/6/8 0:54,2.8,3,2.9,3,3.7,2
2015/6/8 0:55,2.8,3,2.8,3,4.9,3
2015/6/8 0:56,2.7,3,2.8,3,3.1,2
2015/6/8 0:57,2.7,3,2.7,3,3.7,3
2015/6/8 0:58,2.7,3,2.7,3,4.4,3
2015/6/8 0:59,2.7,3,2.7,3,5,3
2015/6/8 1:00,2.7,3,2.7,3,3.5,3
2015/6/8 1:01,2.6,3,2.7,3,3.2,2
2015/6/8 1:02,2.7,3,2.7,3,4.2,3
2015/6/8 1:03,2.7,3,2.7,3,4.2,2
2015/6/8 1:04,2.8,3,2.8,3,5.4,3
2015/6/8 1:05,2.7,3,2.8,3,4.8,4
2015/6/8 1:06,2.7,3,2.7,3,3.2,2
2015/6/8 1:07,2.7,2,2.7,3,3.2,3
2015/6/8 1:08,2.7,2,2.7,3,3.6,3
2015/6/8 1:09,2.6,2,2.7,3,3,2
2015/6/8 1:10,2.5,2,2.6,3,3.7,2
2015/6/8 1:11,2.6,2,2.6,3,4.2,3
2015/6/8 1:12,2.5,2,2.5,3,3.7,3
2015/6/8 1:13,2.5,2,2.5,3,4.4,2
2015/6/8 1:14,2.4,2,2.5,3,3.5,4
2015/6/8 1:15,2.3,2,2.4,3,2.9,3
2015/6/8 1:16,2.3,2,2.3,3,2.2,2
2015/6/8 1:17,2.2,2,2.3,2,2.5,2
2015/6/8 1:18,2.2,2,2.2,2,4.4,3
2015/6/8 1:19,2.3,2,2.3,2,4.3,4
2015/6/8 1:20,2.2,2,2.2,2,2,2
2015/6/8 1:21,2.1,2,2.1,2,2.4,2
2015/6/8 1:22,2.1,2,2.1,2,4.1,3
2015/6/8 1:23,2.1,3,2.2,2,4.7,3
2015/6/8 1:24,2,3,2.1,2,2.9,3
2015/6/8 1:25,1.9,3,2,2,2.7,5
2015/6/8 1:26,2,3,2,2,2.4,2
2015/6/8 1:27,1.9,3,1.9,2,1.8,2
2015/6/8 1:28,1.8,3,1.9,2,2.2,2
2015/6/8 1:29,1.7,3,1.8,2,2.4,3
2015/6/8 1:30,1.7,3,1.7,3,2,2
2015/6/8 1:31,1.7,3,1.7,3,2.5,3
2015/6/8 1:32,1.7,3,1.7,3,3,4
2015/6/8 1:33,1.6,3,1.7,3,3.3,4
2015/6/8 1:34,1.5,3,1.6,3,2,4
2015/6/8 1:35,1.5,3,1.5,3,3,3
2015/6/8 1:36,1.6,3,1.6,3,3.3,3
2015/6/8 1:37,1.7,3,1.7,3,3,3
2015/6/8 1:38,1.8,3,1.8,3,2.6,3
2015/6/8 1:39,1.9,3,1.9,3,3,3
2015/6/8 1:40,1.9,3,1.9,3,2.7,3
2015/6/8 1:41,2,3,2,3,2.7,3
2015/6/8 1:42,2,3,2,3,3.2,3
2015/6/8 1:43,2,3,2,3,2.9,4
2015/6/8 1:44,2.1,3,2.1,3,2.9,3
2015/6/8 1:45,2,3,2.1,3,2.2,2
2015/6/8 1:46,2,3,2,3,3.2,4
2015/6/8 1:47,2,3,2,3,3.2,3
2015/6/8 1:48,2,3,2,3,2.7,3
2015/6/8 1:49,2,3,2,3,3.5,3
2015/6/8 1:50,2.1,3,2.1,3,3.5,3
2015/6/8 1:51,2.2,3,2.2,3,3.7,2
2015/6/8 1:52,2.2,3,2.2,3,3.3,3
2015/6/8 1:53,2.1,3,2.2,3,2.5,4
2015/6/8 1:54,2.2,3,2.2,3,4.3,3
2015/6/8 1:55,2.3,3,2.3,3,3.2,2
2015/6/8 1:56,2.2,3,2.3,3,2.7,3
2015/6/8 1:57,2.2,3,2.2,3,2.4,2
2015/6/8 1:58,2.3,3,2.3,3,4.3,3
2015/6/8 1:59,2.3,3,2.3,3,4.3,3
2015/6/8 2:00,2.2,2,2.3,3,2.9,4
2015/6/8 2:01,2.1,2,2.2,3,2.7,2
2015/6/8 2:02,2.1,2,2.1,3,2.7,3
2015/6/8 2:03,2.2,2,2.2,3,3.8,2
2015/6/8 2:04,2.1,2,2.2,3,3.6,2
2015/6/8 2:05,2.1,2,2.1,3,3.7,3
2015/6/8 2:06,2.1,2,2.1,3,3,3
2015/6/8 2:07,2.2,2,2.2,3,3.1,2
2015/6/8 2:08,2.1,2,2.2,3,4.2,3
2015/6/8 2:09,2.1,2,2.1,3,3.5,2
2015/6/8 2:10,2.1,2,2.1,2,3.1,3
2015/6/8 2:11,2.2,2,2.2,2,3.5,3
2015/6/8 2:12,2.3,2,2.3,2,3.7,2
2015/6/8 2:13,2.3,2,2.3,2,3.6,3
2015/6/8 2:14,2.3,2,2.3,2,3.3,3
2015/6/8 2:15,2.3,2,2.3,2,2.7,2
2015/6/8 2:16,2.3,2,2.3,2,3.7,3
2015/6/8 2:17,2.3,3,2.3,2,3.7,2
2015/6/8 2:18,2.3,3,2.3,2,3.2,2
2015/6/8 2:19,2.3,2,2.3,2,3.6,2
2015/6/8 2:20,2.4,3,2.4,3,4.9,3
2015/6/8 2:21,2.4,3,2.4,3,4.2,3
2015/6/8 2:22,2.4,3,2.4,3,4.4,3
2015/6/8 2:23,2.3,3,2.4,3,3.6,3
2015/6/8 2:24,2.4,3,2.4,3,3.9,3
2015/6/8 2:25,2.6,3,2.6,3,3.7,3
2015/6/8 2:26,2.6,3,2.6,3,3,2
2015/6/8 2:27,2.6,3,2.6,3,4.4,3
2015/6/8 2:28,2.7,3,2.7,3,4.1,3
2015/6/8 2:29,2.6,3,2.7,3,2.6,2
2015/6/8 2:30,2.5,3,2.6,3,3.3,2
2015/6/8 2:31,2.4,3,2.5,3,2.9,3
2015/6/8 2:32,2.3,2,2.4,3,2.7,2
2015/6/8 2:33,2.3,2,2.3,3,3.7,3
2015/6/8 2:34,2.2,2,2.3,3,3.5,3
2015/6/8 2:35,2.1,2,2.2,3,3,2
2015/6/8 2:36,2.1,2,2.1,3,3.5,16
2015/6/8 2:37,2,2,2.1,3,3.3,16
2015/6/8 2:38,1.9,2,2,3,3.9,3
2015/6/8 2:39,2,2,2,3,4.1,2
2015/6/8 2:40,2.1,2,2.1,3,4.8,4
2015/6/8 2:41,2,2,2.1,3,3,1
2015/6/8 2:42,2.1,2,2.1,2,3.7,3
2015/6/8 2:43,2.2,2,2.2,2,4.2,4
2015/6/8 2:44,2.3,2,2.3,2,3.5,3
2015/6/8 2:45,2.4,2,2.4,2,4.1,3
2015/6/8 2:46,2.5,3,2.5,3,3.8,3
2015/6/8 2:47,2.5,3,2.6,3,3.2,4
2015/6/8 2:48,2.6,3,2.6,3,4.9,4
2015/6/8 2:49,2.6,3,2.6,3,4.2,4
2015/6/8 2:50,2.4,3,2.5,3,3.7,2
2015/6/8 2:51,2.5,3,2.5,3,3.2,2
2015/6/8 2:52,2.5,3,2.5,3,3.8,3
2015/6/8 2:53,2.5,3,2.5,3,4.7,3
2015/6/8 2:54,2.5,3,2.6,3,5.1,2
2015/6/8 2:55,2.6,3,2.6,3,4.3,3
2015/6/8 2:56,2.7,3,2.7,3,4.7,2
2015/6/8 2:57,2.8,3,2.8,3,3.7,3
2015/6/8 2:58,2.7,3,2.8,3,3.3,4
2015/6/8 2:59,2.6,3,2.7,3,3,3
2015/6/8 3:00,2.6,3,2.7,3,2.6,3
2015/6/8 3:01,2.6,3,2.6,3,3.3,3
2015/6/8 3:02,2.6,3,2.6,3,4.2,2
2015/6/8 3:03,2.6,3,2.6,3,5.4,2
2015/6/8 3:04,2.7,3,2.7,3,5.4,3
2015/6/8 3:05,2.6,2,2.7,3,4.9,3
2015/6/8 3:06,2.5,2,2.6,3,4.2,3
2015/6/8 3:07,2.6,3,2.6,3,4.2,4
2015/6/8 3:08,2.7,3,2.7,3,4.4,4
2015/6/8 3:09,2.9,3,2.9,3,4.1,3
2015/6/8 3:10,3,3,3,3,3.6,3
2015/6/8 3:11,3,3,3,3,3.1,3
2015/6/8 3:12,2.9,3,3,3,3.5,2
2015/6/8 3:13,2.8,3,2.9,3,3.2,2
2015/6/8 3:14,2.6,3,2.8,3,3.6,2
2015/6/8 3:15,2.7,3,2.7,3,3.9,4
2015/6/8 3:16,2.6,3,2.7,3,3.1,3
2015/6/8 3:17,2.4,3,2.6,3,1.9,4
2015/6/8 3:18,2.3,3,2.4,3,3.7,2
2015/6/8 3:19,2.3,3,2.3,3,3.5,3
2015/6/8 3:20,2.3,3,2.3,3,3.5,3
2015/6/8 3:21,2.3,3,2.3,3,3.2,3
2015/6/8 3:22,2.3,3,2.3,3,3.6,3
2015/6/8 3:23,2.3,3,2.3,3,3.6,4
2015/6/8 3:24,2.2,3,2.3,3,2.5,3
2015/6/8 3:25,2.2,3,2.2,3,2.6,4
2015/6/8 3:26,2.2,3,2.2,3,3.9,4
2015/6/8 3:27,2.3,3,2.3,3,3.9,4
2015/6/8 3:28,2.2,3,2.3,3,2.6,2
2015/6/8 3:29,2.1,3,2.2,3,2.6,2
2015/6/8 3:30,2.1,3,2.1,3,2.9,4
2015/6/8 3:31,2.1,3,2.1,3,3.1,4
2015/6/8 3:32,2.2,3,2.2,3,4.5,6
2015/6/8 3:33,2.2,3,2.2,3,4.2,5
2015/6/8 3:34,2.2,3,2.2,3,3,3
2015/6/8 3:35,2.2,3,2.2,3,1.9,3
2015/6/8 3:36,2,3,2.2,3,2.1,4
2015/6/8 3:37,2,3,2,3,2.9,3
2015/6/8 3:38,1.9,3,2,3,2.2,2
2015/6/8 3:39,2.1,3,2.1,3,4.8,5
2015/6/8 3:40,2.2,3,2.2,3,3.5,4
2015/6/8 3:41,2.2,3,2.2,3,5,3
2015/6/8 3:42,2.2,3,2.3,3,5.4,3
2015/6/8 3:43,2.2,3,2.2,3,3.6,3
2015/6/8 3:44,2.2,3,2.2,3,2.6,4
2015/6/8 3:45,2.2,3,2.2,3,1.9,3
2015/6/8 3:46,2.3,3,2.3,3,4.2,2
2015/6/8 3:47,2.4,3,2.4,3,4.8,3
2015/6/8 3:48,2.5,3,2.5,3,3.2,4
2015/6/8 3:49,2.4,3,2.5,3,3.1,3
2015/6/8 3:50,2.4,3,2.4,3,3,3
2015/6/8 3:51,2.2,3,2.3,3,2.2,3
2015/6/8 3:52,2,3,2.2,3,2.5,3
2015/6/8 3:53,2.1,3,2.1,3,5.6,3
2015/6/8 3:54,2.3,3,2.3,3,5,3
2015/6/8 3:55,2.4,3,2.4,3,3.6,3
2015/6/8 3:56,2.4,3,2.4,3,3.5,3
2015/6/8 3:57,2.4,3,2.4,3,3.6,3
2015/6/8 3:58,2.4,3,2.4,3,4.1,3
2015/6/8 3:59,2.5,3,2.5,3,4.3,3
2015/6/8 4:00,2.5,3,2.5,3,3.1,4
2015/6/8 4:01,2.6,3,2.6,3,3.2,3
2015/6/8 4:02,2.7,3,2.7,3,3.6,4
2015/6/8 4:03,2.6,3,2.7,3,4.4,4
2015/6/8 4:04,2.5,3,2.6,3,3.2,3
2015/6/8 4:05,2.6,3,2.6,3,4.2,3
2015/6/8 4:06,2.7,3,2.7,3,4.7,4
2015/6/8 4:07,2.8,3,2.8,3,4.7,4
2015/6/8 4:08,2.7,3,2.8,3,4.2,3
2015/6/8 4:09,2.7,3,2.7,3,3.6,3
2015/6/8 4:10,2.7,3,2.7,3,3.5,3
2015/6/8 4:11,2.8,3,2.8,3,4.2,3
2015/6/8 4:12,2.8,3,2.8,3,3.6,2
2015/6/8 4:13,2.7,3,2.8,3,2.5,2
2015/6/8 4:14,2.7,3,2.7,3,3.8,3
2015/6/8 4:15,2.6,3,2.7,3,3,3
2015/6/8 4:16,2.5,3,2.6,3,2.1,3
2015/6/8 4:17,2.3,3,2.5,3,2.4,5
2015/6/8 4:18,2.2,3,2.3,3,2.5,3
2015/6/8 4:19,2.2,3,2.3,3,3.6,3
2015/6/8 4:20,2.2,3,2.2,3,2.4,4
2015/6/8 4:21,2.1,3,2.2,3,3.8,3
2015/6/8 4:22,2,4,2.1,3,3.2,3
2015/6/8 4:23,2.1,4,2.1,3,2.9,4
2015/6/8 4:24,1.9,3,2.1,3,2.9,3
2015/6/8 4:25,1.9,3,2,3,3.6,2
2015/6/8 4:26,1.9,3,1.9,3,2.7,3
2015/6/8 4:27,2,3,2,3,3.2,3
2015/6/8 4:28,2.1,3,2.1,3,4.8,4
2015/6/8 4:29,2.2,3,2.2,3,3.9,3
2015/6/8 4:30,2.3,3,2.3,3,4.2,4
2015/6/8 4:31,2.4,3,2.4,3,3.6,3
2015/6/8 4:32,2.3,3,2.4,3,2.9,3
2015/6/8 4:33,2.4,3,2.4,3,3.3,4
2015/6/8 4:34,2.4,3,2.4,3,3,5
2015/6/8 4:35,2.4,3,2.4,3,3.1,3
2015/6/8 4:36,2.4,3,2.4,3,2.4,4
2015/6/8 4:37,2.3,3,2.4,3,2.2,4
2015/6/8 4:38,2.2,3,2.3,3,2.4,2
2015/6/8 4:39,2.1,3,2.2,3,3.2,2
2015/6/8 4:40,2,3,2.1,3,3.7,4
2015/6/8 4:41,2,3,2.1,3,3.8,3
2015/6/8 4:42,2.1,3,2.1,3,2.1,3
2015/6/8 4:43,1.9,3,2,3,2.7,3
2015/6/8 4:44,2.1,3,2.1,3,4.4,2
2015/6/8 4:45,2.1,3,2.1,3,4.9,3
2015/6/8 4:46,2.2,3,2.2,3,3.3,3
2015/6/8 4:47,2.4,3,2.4,3,4.4,3
2015/6/8 4:48,2.5,3,2.5,3,4.2,3
2015/6/8 4:49,2.6,3,2.6,3,4.2,3
2015/6/8 4:50,2.6,3,2.6,3,3.7,4
2015/6/8 4:51,2.6,3,2.6,3,3.7,2
2015/6/8 4:52,2.7,3,2.7,3,3.2,4
2015/6/8 4:53,2.7,3,2.7,3,2.6,4
2015/6/8 4:54,2.6,3,2.7,3,2.9,4
2015/6/8 4:55,2.4,3,2.6,3,2,4
2015/6/8 4:56,2.4,3,2.4,3,3.5,3
2015/6/8 4:57,2.3,3,2.4,3,3.9,3
2015/6/8 4:58,2.3,3,2.3,3,3.5,5
2015/6/8 4:59,2.2,4,2.3,3,3.5,4
2015/6/8 5:00,2,4,2.2,3,1.9,5
2015/6/8 5:01,2,3,2,3,4.2,4
2015/6/8 5:02,2.2,3,2.2,3,5.6,4
2015/6/8 5:03,2.4,3,2.4,3,5.1,3
2015/6/8 5:04,2.5,3,2.5,3,3.9,4
2015/6/8 5:05,2.5,3,2.5,3,3.3,4
2015/6/8 5:06,2.6,3,2.6,3,4.4,3
2015/6/8 5:07,2.7,3,2.7,3,4.3,3
2015/6/8 5:08,2.6,3,2.7,3,3.3,3
2015/6/8 5:09,2.6,3,2.6,3,2.2,2
2015/6/8 5:10,2.7,3,2.7,3,3.3,3
2015/6/8 5:11,2.8,3,2.8,3,3.5,3
2015/6/8 5:12,2.6,3,2.7,3,4.2,3
2015/6/8 5:13,2.5,3,2.6,3,3.7,4
2015/6/8 5:14,2.5,3,2.5,3,4.1,3
2015/6/8 5:15,2.5,3,2.5,3,3.8,3
2015/6/8 5:16,2.5,3,2.5,3,3.3,2
2015/6/8 5:17,2.4,3,2.5,3,3.2,3
2015/6/8 5:18,2.4,3,2.4,3,4.1,4
2015/6/8 5:19,2.6,3,2.6,3,4.9,4
2015/6/8 5:20,2.7,3,2.7,3,4.1,3
2015/6/8 5:21,2.6,3,2.7,3,3.5,3
2015/6/8 5:22,2.6,3,2.7,3,4.2,3
2015/6/8 5:23,2.6,3,2.6,3,3.6,3
2015/6/8 5:24,2.7,3,2.7,3,3.8,3
2015/6/8 5:25,2.6,3,2.7,3,3.2,2
2015/6/8 5:26,2.6,3,2.6,3,3.5,3
2015/6/8 5:27,2.6,3,2.6,3,3.9,3
2015/6/8 5:28,2.5,3,2.6,3,2.7,4
2015/6/8 5:29,2.4,3,2.5,3,3.1,3
2015/6/8 5:30,2.3,3,2.4,3,3.2,3
2015/6/8 5:31,2.3,3,2.3,3,2.5,3
2015/6/8 5:32,2.2,3,2.3,3,3.9,3
2015/6/8 5:33,2.2,3,2.3,3,3.6,4
2015/6/8 5:34,2.2,3,2.2,3,4.2,3
2015/6/8 5:35,2.2,3,2.2,3,4.4,3
2015/6/8 5:36,2.3,3,2.3,3,4.3,3
2015/6/8 5:37,2.3,3,2.3,3,4.2,3
2015/6/8 5:38,2.5,3,2.5,3,6,3
2015/6/8 5:39,2.6,3,2.7,3,4.7,3
2015/6/8 5:40,2.7,3,2.7,3,4.2,3
2015/6/8 5:41,2.9,3,2.9,3,5.1,3
2015/6/8 5:42,2.9,3,3,3,4.2,3
2015/6/8 5:43,2.8,3,2.9,3,3.5,3
2015/6/8 5:44,2.8,3,2.8,3,4.7,3
2015/6/8 5:45,2.9,3,2.9,3,4.9,4
2015/6/8 5:46,2.9,3,2.9,3,3.9,3
2015/6/8 5:47,2.8,3,2.9,3,3.8,2
2015/6/8 5:48,2.7,3,2.8,3,3.9,5
2015/6/8 5:49,2.8,3,2.8,3,4.2,3
2015/6/8 5:50,2.7,3,2.8,3,3.9,4
2015/6/8 5:51,2.6,3,2.7,3,3.2,4
2015/6/8 5:52,2.6,3,2.6,3,4.2,3
2015/6/8 5:53,2.7,3,2.7,3,3.6,3
2015/6/8 5:54,2.6,3,2.7,3,3.1,3
2015/6/8 5:55,2.6,3,2.6,3,3.6,3
2015/6/8 5:56,2.5,3,2.5,3,3.9,2
2015/6/8 5:57,2.7,3,2.7,3,4.7,3
2015/6/8 5:58,2.6,3,2.7,3,3.7,3
2015/6/8 5:59,2.6,3,2.6,3,4.9,4
2015/6/8 6:00,2.7,3,2.7,3,3.9,4
2015/6/8 6:01,2.6,3,2.7,3,3.8,4
2015/6/8 6:02,2.5,3,2.6,3,4.2,4
2015/6/8 6:03,2.6,3,2.6,3,4.4,5
2015/6/8 6:04,2.6,3,2.7,3,3.6,3
2015/6/8 6:05,2.6,3,2.6,3,3.9,3
2015/6/8 6:06,2.7,3,2.7,3,5.5,3
2015/6/8 6:07,2.7,3,2.7,3,6.2,3
2015/6/8 6:08,2.7,3,2.7,3,5.2,6
2015/6/8 6:09,2.8,4,2.8,3,5.4,5
2015/6/8 6:10,2.7,4,2.7,3,3.2,4
2015/6/8 6:11,2.8,4,2.8,3,4.5,4
2015/6/8 6:12,2.9,4,2.9,4,5.5,4
2015/6/8 6:13,3,4,3,4,6.5,3
2015/6/8 6:14,3.1,4,3.1,4,4.2,5
2015/6/8 6:15,3.2,4,3.2,4,4.8,3
2015/6/8 6:16,3.1,4,3.2,4,3.7,3
2015/6/8 6:17,3.1,4,3.1,4,3.8,4
2015/6/8 6:18,2.9,3,3.1,4,2.7,3
2015/6/8 6:19,2.8,3,2.9,4,4.1,3
2015/6/8 6:20,2.9,3,2.9,4,4.2,3
2015/6/8 6:21,2.8,3,2.9,4,3.6,3
2015/6/8 6:22,2.9,3,2.9,4,4.2,3
2015/6/8 6:23,2.7,3,2.8,4,3.9,3
2015/6/8 6:24,2.6,3,2.7,4,3.2,3
2015/6/8 6:25,2.5,3,2.6,4,4.5,1
2015/6/8 6:26,2.5,3,2.5,4,4.1,2
2015/6/8 6:27,2.5,3,2.5,4,4.9,3
2015/6/8 6:28,2.6,3,2.6,3,4.3,3
2015/6/8 6:29,2.7,3,2.7,3,3.8,2
2015/6/8 6:30,2.6,3,2.6,3,3.9,3
2015/6/8 6:31,2.6,3,2.6,3,5,4
2015/6/8 6:32,2.6,3,2.7,3,4.3,3
2015/6/8 6:33,2.6,3,2.6,3,3.3,4
2015/6/8 6:34,2.6,3,2.6,3,3.5,4
2015/6/8 6:35,2.7,3,2.7,3,5.7,2
2015/6/8 6:36,2.8,3,2.8,3,4.9,4
2015/6/8 6:37,2.9,3,2.9,3,4.7,4
2015/6/8 6:38,2.9,4,2.9,3,4.4,5
2015/6/8 6:39,2.9,4,2.9,3,4.1,3
2015/6/8 6:40,2.9,4,2.9,3,3.1,4
2015/6/8 6:41,2.8,4,2.9,3,2.9,3
2015/6/8 6:42,2.7,4,2.8,3,3,3
2015/6/8 6:43,2.7,4,2.7,3,4.3,3
2015/6/8 6:44,2.8,4,2.8,3,4.8,3
2015/6/8 6:45,2.9,4,2.9,3,5.1,4
2015/6/8 6:46,3,4,3,4,4.9,4
2015/6/8 6:47,2.9,4,3,4,4.4,3
2015/6/8 6:48,2.8,4,2.9,4,4.7,3
2015/6/8 6:49,2.9,4,2.9,4,4.2,3
2015/6/8 6:50,3,4,3,4,4.4,4
2015/6/8 6:51,3.2,4,3.2,4,5,4
2015/6/8 6:52,3.3,3,3.3,4,5.5,2
2015/6/8 6:53,3.3,3,3.3,4,3.3,4
2015/6/8 6:54,3.1,3,3.3,4,4.5,2
2015/6/8 6:55,3.1,3,3.1,4,5.6,4
2015/6/8 6:56,3,3,3.1,4,4.2,3
2015/6/8 6:57,3,3,3,4,5.7,3
2015/6/8 6:58,2.9,3,3,4,3.1,3
2015/6/8 6:59,2.8,3,2.9,4,2.6,3
2015/6/8 7:00,2.8,3,2.8,4,3.9,3
2015/6/8 7:01,2.6,3,2.7,4,3.9,3
2015/6/8 7:02,2.5,3,2.5,3,5.6,3
2015/6/8 7:03,2.5,3,2.5,3,3.9,2
2015/6/8 7:04,2.6,3,2.7,3,3.8,3
2015/6/8 7:05,2.7,3,2.7,3,7.1,3
2015/6/8 7:06,2.8,3,2.8,3,5.1,4
2015/6/8 7:07,2.9,3,2.9,3,5,4
2015/6/8 7:08,3,3,3,3,5.4,3
2015/6/8 7:09,3,3,3.1,3,3.2,4
2015/6/8 7:10,3,3,3,3,4.8,4
2015/6/8 7:11,3.2,3,3.2,3,5.1,4
2015/6/8 7:12,3.1,3,3.2,3,3.9,3
2015/6/8 7:13,3,3,3.1,3,2.2,4
2015/6/8 7:14,3.1,3,3.1,3,4.8,3
2015/6/8 7:15,3,3,3.1,3,5.5,3
2015/6/8 7:16,2.9,3,2.9,3,5.7,5
2015/6/8 7:17,2.9,3,3,3,6.1,4
2015/6/8 7:18,2.9,3,3,3,5.5,4
2015/6/8 7:19,2.9,3,2.9,3,3.5,2
2015/6/8 7:20,2.8,4,2.9,3,3.3,4
2015/6/8 7:21,2.7,3,2.8,3,5,3
2015/6/8 7:22,2.7,4,2.7,3,4.3,5
2015/6/8 7:23,2.8,4,2.8,3,3.1,6
2015/6/8 7:24,2.6,4,2.8,3,2.7,3
2015/6/8 7:25,2.5,4,2.6,3,2.5,3
2015/6/8 7:26,2.5,4,2.5,3,3.7,4
2015/6/8 7:27,2.3,4,2.4,3,4.7,5
2015/6/8 7:28,2.2,4,2.3,3,5.2,3
2015/6/8 7:29,2.2,4,2.2,3,4.4,4
2015/6/8 7:30,2.3,4,2.3,3,3.9,5
2015/6/8 7:31,2.2,4,2.3,4,3.8,4
2015/6/8 7:32,2.3,4,2.3,4,4.9,5
2015/6/8 7:33,2.4,4,2.4,4,5,5
2015/6/8 7:34,2.6,4,2.6,4,4.4,5
2015/6/8 7:35,2.7,5,2.7,5,3.9,4
2015/6/8 7:36,2.7,5,2.8,5,4.7,5
2015/6/8 7:37,2.6,5,2.7,5,2.7,4
2015/6/8 7:38,2.7,5,2.7,5,3.9,3
2015/6/8 7:39,2.7,5,2.7,5,3.8,4
2015/6/8 7:40,2.7,5,2.7,5,3.8,5
2015/6/8 7:41,2.7,4,2.7,5,3.5,5
2015/6/8 7:42,2.5,4,2.7,5,3.1,6
2015/6/8 7:43,2.4,4,2.5,5,3.5,4
2015/6/8 7:44,2.2,4,2.4,5,2.9,4
2015/6/8 7:45,2.1,4,2.2,5,3.3,4
2015/6/8 7:46,2.1,4,2.1,5,3.3,3
2015/6/8 7:47,2.3,4,2.3,5,4.3,5
2015/6/8 7:48,2.2,4,2.3,5,3.1,5
2015/6/8 7:49,2.1,4,2.2,5,2.6,5
2015/6/8 7:50,2.1,4,2.1,5,3.3,3
2015/6/8 7:51,2.1,4,2.1,4,4.5,4
2015/6/8 7:52,2.2,4,2.2,4,4.3,4
2015/6/8 7:53,2.2,4,2.2,4,2.7,5
2015/6/8 7:54,2.2,4,2.2,4,3.2,2
2015/6/8 7:55,2.2,4,2.2,4,2.9,3
2015/6/8 7:56,2.1,4,2.2,4,2.2,2
2015/6/8 7:57,1.9,4,2.1,4,3.2,2
2015/6/8 7:58,2,4,2,4,5.1,4
2015/6/8 7:59,2.1,4,2.1,4,4.5,4
2015/6/8 8:00,2.1,4,2.1,4,3,5
2015/6/8 8:01,2,4,2.1,4,2.4,6
2015/6/8 8:02,1.9,4,2,4,1.8,5
2015/6/8 8:03,1.8,4,1.9,4,2,6
2015/6/8 8:04,1.9,4,1.9,4,3.6,1
2015/6/8 8:05,1.9,4,1.9,4,3.5,1
2015/6/8 8:06,2.1,4,2.1,4,4.2,3
2015/6/8 8:07,2.1,4,2.1,4,3.8,3
2015/6/8 8:08,2.1,4,2.2,4,4.2,5
2015/6/8 8:09,2.1,4,2.1,4,4.8,4
2015/6/8 8:10,2.1,4,2.1,4,3.3,3
2015/6/8 8:11,2.2,4,2.2,4,3.3,5
2015/6/8 8:12,2.3,4,2.3,4,3.3,2
2015/6/8 8:13,2.4,4,2.4,4,3.7,3
2015/6/8 8:14,2.4,4,2.4,4,4.4,3
2015/6/8 8:15,2.4,4,2.4,4,3.6,3
2015/6/8 8:16,2.4,4,2.4,4,3.6,5
2015/6/8 8:17,2.4,4,2.4,4,4.4,5
2015/6/8 8:18,2.4,4,2.4,4,3,4
2015/6/8 8:19,2.4,4,2.4,4,3.9,4
2015/6/8 8:20,2.4,4,2.4,4,3.9,4
2015/6/8 8:21,2.3,4,2.4,4,3.3,4
2015/6/8 8:22,2.5,4,2.5,4,4.5,2
2015/6/8 8:23,2.5,4,2.6,4,4.7,5
2015/6/8 8:24,2.5,4,2.5,4,3.7,3
2015/6/8 8:25,2.5,4,2.5,4,3.3,4
2015/6/8 8:26,2.4,4,2.5,4,2.6,6
2015/6/8 8:27,2.2,4,2.4,4,2.9,3
2015/6/8 8:28,2.3,4,2.3,4,3.8,4
2015/6/8 8:29,2.4,4,2.4,4,4.1,3
2015/6/8 8:30,2.4,4,2.4,4,3.7,3
2015/6/8 8:31,2.5,4,2.5,4,3.7,4
2015/6/8 8:32,2.4,4,2.5,4,3.5,5
2015/6/8 8:33,2.4,4,2.4,4,4.4,5
2015/6/8 8:34,2.4,4,2.4,4,3.7,4
2015/6/8 8:35,2.5,4,2.5,4,3.9,5
2015/6/8 8:36,2.7,4,2.7,4,4.2,5
2015/6/8 8:37,2.8,4,2.8,4,4.7,5
2015/6/8 8:38,2.8,4,2.8,4,3.7,4
2015/6/8 8:39,2.9,4,2.9,4,5.1,4
2015/6/8 8:40,2.9,4,2.9,4,5.2,4
2015/6/8 8:41,3,4,3,4,4.8,3
2015/6/8 8:42,3,4,3,4,3.7,3
2015/6/8 8:43,2.9,4,3.1,4,3,3
2015/6/8 8:44,2.9,4,2.9,4,3.3,3
2015/6/8 8:45,2.9,4,3,4,2.9,2
2015/6/8 8:46,2.7,4,2.9,4,3.3,5
2015/6/8 8:47,2.6,4,2.7,4,3.2,5
2015/6/8 8:48,2.7,4,2.7,4,3.5,5
2015/6/8 8:49,2.5,4,2.7,4,3.3,2
2015/6/8 8:50,2.5,4,2.5,4,5.5,6
2015/6/8 8:51,2.4,4,2.5,4,3.8,6
2015/6/8 8:52,2.4,5,2.5,4,3.8,5
2015/6/8 8:53,2.5,5,2.5,4,3.5,6
2015/6/8 8:54,2.6,5,2.6,4,4.7,5
2015/6/8 8:55,2.7,5,2.7,4,4.7,5
2015/6/8 8:56,2.9,5,2.9,5,5.2,5
2015/6/8 8:57,2.9,5,2.9,5,4.3,6
2015/6/8 8:58,2.9,5,3,5,4.2,6
2015/6/8 8:59,2.9,5,2.9,5,2.9,5
2015/6/8 9:00,2.9,5,2.9,5,4.8,5
2015/6/8 9:01,2.9,5,2.9,5,3.9,6
2015/6/8 9:02,2.8,5,2.9,5,2.9,4
2015/6/8 9:03,2.8,5,2.8,5,2.7,4
2015/6/8 9:04,2.6,5,2.8,5,2.6,4
2015/6/8 9:05,2.5,5,2.6,5,3.1,4
2015/6/8 9:06,2.2,5,2.5,5,2.4,4
2015/6/8 9:07,2.2,5,2.2,5,3.8,4
2015/6/8 9:08,2.2,5,2.2,5,3.9,6
2015/6/8 9:09,2.3,5,2.3,5,4.2,5
2015/6/8 9:10,2.2,5,2.3,5,3.9,5
2015/6/8 9:11,2.1,5,2.2,5,3.3,6
2015/6/8 9:12,2.2,5,2.2,5,3.6,6
2015/6/8 9:13,2.2,5,2.3,5,3.1,5
2015/6/8 9:14,2.3,5,2.3,5,3.7,4
2015/6/8 9:15,2.4,5,2.4,5,4.7,4
2015/6/8 9:16,2.6,5,2.6,5,5.2,4
2015/6/8 9:17,2.7,5,2.7,5,5.6,4
2015/6/8 9:18,2.7,5,2.8,5,4.3,6
2015/6/8 9:19,2.7,5,2.7,5,4.7,6
2015/6/8 9:20,2.8,5,2.8,5,5.1,6
2015/6/8 9:21,2.8,5,2.8,5,3.7,6
2015/6/8 9:22,2.7,5,2.8,5,2.9,6
2015/6/8 9:23,2.6,5,2.6,5,3.2,6
2015/6/8 9:24,2.6,6,2.7,5,3.2,6
2015/6/8 9:25,2.6,6,2.6,5,3.8,4
2015/6/8 9:26,2.4,6,2.6,5,3.7,2
2015/6/8 9:27,2.3,5,2.4,5,3.3,4
2015/6/8 9:28,2.3,5,2.3,5,5.1,5
2015/6/8 9:29,2.5,5,2.5,5,5.5,5
2015/6/8 9:30,2.4,5,2.5,5,4.4,4
2015/6/8 9:31,2.5,5,2.5,5,5,4
2015/6/8 9:32,2.7,5,2.7,5,4.5,5
2015/6/8 9:33,2.9,4,2.9,4,6.1,4
2015/6/8 9:34,3,4,3,4,4.9,5
2015/6/8 9:35,3,4,3.1,4,4.5,5
2015/6/8 9:36,3.1,5,3.1,4,3.3,5
2015/6/8 9:37,3,5,3,4,2.6,5
2015/6/8 9:38,3,5,3,4,3.8,5
2015/6/8 9:39,2.9,5,3,4,5.4,3
2015/6/8 9:40,3,4,3,4,6,5
2015/6/8 9:41,2.9,4,3,4,3.5,5
2015/6/8 9:42,2.8,4,2.9,4,3.5,5
2015/6/8 9:43,2.6,5,2.8,4,2.9,4
2015/6/8 9:44,2.5,4,2.6,4,3.1,4
2015/6/8 9:45,2.4,4,2.5,5,3.7,4
2015/6/8 9:46,2.4,4,2.4,5,3.7,4
2015/6/8 9:47,2.7,4,2.7,5,6.9,3
2015/6/8 9:48,2.9,4,2.9,5,6.8,3
2015/6/8 9:49,2.9,4,2.9,5,5.1,6
2015/6/8 9:50,2.8,4,2.8,4,3.7,4
2015/6/8 9:51,2.9,5,2.9,4,4.9,6
2015/6/8 9:52,2.9,5,2.9,4,4.5,5
2015/6/8 9:53,3.1,5,3.1,5,5.1,4
2015/6/8 9:54,3.3,5,3.3,5,4.7,4
2015/6/8 9:55,3.3,5,3.3,5,3.3,4
2015/6/8 9:56,3.3,5,3.4,5,2.9,3
2015/6/8 9:57,3.1,5,3.3,5,3.8,3
2015/6/8 9:58,3,4,3.1,5,3.6,6
2015/6/8 9:59,2.9,4,3,5,3.5,7
2015/6/8 10:00,2.9,5,2.9,5,4.8,5
2015/6/8 10:01,2.9,5,3,5,4.2,6
2015/6/8 10:02,2.8,5,2.8,5,4.8,6
2015/6/8 10:03,2.7,5,2.8,5,3.6,3
2015/6/8 10:04,2.6,5,2.7,5,4.7,6
2015/6/8 10:05,2.7,5,2.7,5,3.3,6
2015/6/8 10:06,2.8,5,2.8,4,5.8,5
2015/6/8 10:07,2.8,6,2.8,5,4.8,5
2015/6/8 10:08,2.7,6,2.8,4,2.9,5
2015/6/8 10:09,2.6,6,2.7,5,3,3
2015/6/8 10:10,2.5,5,2.6,5,4.5,3
2015/6/8 10:11,2.6,5,2.6,5,5.2,3
2015/6/8 10:12,2.8,5,2.8,5,6,3
2015/6/8 10:13,2.8,5,2.8,5,5.6,3
2015/6/8 10:14,2.7,5,2.8,5,3.7,5
2015/6/8 10:15,2.6,5,2.7,5,3.5,6
2015/6/8 10:16,2.6,5,2.6,5,5.2,8
2015/6/8 10:17,2.6,5,2.6,6,6.9,6
2015/6/8 10:18,2.9,5,2.9,5,6.2,5
2015/6/8 10:19,3,5,3,5,5.1,7
2015/6/8 10:20,3.2,5,3.2,5,5.4,5
2015/6/8 10:21,3.2,5,3.2,5,5.2,4
2015/6/8 10:22,3.2,6,3.3,5,6.1,5
2015/6/8 10:23,3.1,6,3.2,5,3.9,7
2015/6/8 10:24,3.1,6,3.1,5,2.6,8
2015/6/8 10:25,3,6,3.1,5,3,7
2015/6/8 10:26,2.9,6,3,5,3.6,6
2015/6/8 10:27,2.8,6,2.9,5,2.6,8
2015/6/8 10:28,2.5,6,2.7,5,2.6,6
2015/6/8 10:29,2.3,6,2.5,5,2.7,6
2015/6/8 10:30,2.1,6,2.3,5,3.5,9
2015/6/8 10:31,1.9,6,2.1,5,3.5,8
2015/6/8 10:32,1.8,6,1.9,6,3.6,5
2015/6/8 10:33,1.6,6,1.8,6,2.2,5
2015/6/8 10:34,1.7,6,1.7,6,3.8,3
2015/6/8 10:35,1.9,6,1.9,6,5.1,5
2015/6/8 10:36,2.1,6,2.1,6,5.8,5
2015/6/8 10:37,2.4,6,2.4,6,7.2,5
2015/6/8 10:38,2.6,6,2.6,6,6.1,5
2015/6/8 10:39,2.9,6,2.9,6,5.5,6
2015/6/8 10:40,3,6,3,6,5.5,8
2015/6/8 10:41,3.2,6,3.2,6,4.4,7
2015/6/8 10:42,3.3,6,3.3,6,6.3,6
2015/6/8 10:43,3.5,6,3.5,6,4.4,6
2015/6/8 10:44,3.6,6,3.6,6,5,7
2015/6/8 10:45,3.5,6,3.5,6,3.5,5
2015/6/8 10:46,3.3,6,3.5,6,3.3,7
2015/6/8 10:47,3.1,6,3.3,6,3.9,6
2015/6/8 10:48,2.9,6,3.1,6,3.5,7
2015/6/8 10:49,2.7,7,2.8,6,5,6
2015/6/8 10:50,2.9,6,2.9,6,6,6
2015/6/8 10:51,3,6,3,6,5.8,6
2015/6/8 10:52,3,6,3,6,6.4,6
2015/6/8 10:53,3.2,6,3.2,6,6.4,5
2015/6/8 10:54,3.3,6,3.3,6,7.6,7
2015/6/8 10:55,3.5,6,3.5,6,4.7,4
2015/6/8 10:56,3.6,6,3.6,6,5.1,5
2015/6/8 10:57,3.6,6,3.6,6,6.4,6
2015/6/8 10:58,3.7,6,3.7,6,5.1,6
2015/6/8 10:59,3.6,6,3.8,6,3.5,5
2015/6/8 11:00,3.4,6,3.6,6,3.7,6
2015/6/8 11:01,3.2,6,3.4,6,3.5,5
2015/6/8 11:02,3.3,6,3.3,6,9,4
2015/6/8 11:03,3.2,6,3.3,6,6.9,4
2015/6/8 11:04,3.3,6,3.3,6,6.4,6
2015/6/8 11:05,3.3,6,3.3,6,4.8,5
2015/6/8 11:06,3.2,6,3.3,6,3.6,7
2015/6/8 11:07,3.1,5,3.2,6,4.7,6
2015/6/8 11:08,3.1,5,3.2,6,4.7,7
2015/6/8 11:09,3.3,5,3.3,6,5.6,7
2015/6/8 11:10,3.4,5,3.4,6,6.3,6
2015/6/8 11:11,3.6,6,3.6,5,6.7,5
2015/6/8 11:12,3.4,6,3.6,5,5.2,6
2015/6/8 11:13,3.3,6,3.4,5,4.8,6
2015/6/8 11:14,3.2,6,3.3,5,4.1,6
2015/6/8 11:15,3.1,6,3.2,5,3.9,6
2015/6/8 11:16,3.1,6,3.1,5,4.2,4
2015/6/8 11:17,3,5,3.1,5,3.6,5
2015/6/8 11:18,3,5,3,5,3.9,4
2015/6/8 11:19,2.8,5,3,5,3.6,9
2015/6/8 11:20,2.9,5,2.9,5,8.1,5
2015/6/8 11:21,2.9,5,2.9,6,7.5,5
2015/6/8 11:22,3.1,6,3.1,6,8.1,6
2015/6/8 11:23,3.1,6,3.1,6,6.9,6
2015/6/8 11:24,3.3,6,3.3,6,7.1,7
2015/6/8 11:25,3.6,6,3.6,6,7.2,7
2015/6/8 11:26,3.6,6,3.6,6,4.5,6
2015/6/8 11:27,3.5,6,3.6,6,3.2,5
2015/6/8 11:28,3.5,6,3.5,6,3.5,6
2015/6/8 11:29,3.5,6,3.5,6,3.5,6
2015/6/8 11:30,3.4,6,3.5,6,6.9,8
2015/6/8 11:31,3.2,7,3.3,6,5,8
2015/6/8 11:32,2.9,7,3.2,6,3.9,8
2015/6/8 11:33,2.9,7,3,6,4.8,8
2015/6/8 11:34,2.7,7,2.8,6,5.1,6
2015/6/8 11:35,2.6,7,2.7,6,6.3,6
2015/6/8 11:36,2.8,7,2.8,6,5.7,6
2015/6/8 11:37,2.9,7,2.9,6,5.2,8
2015/6/8 11:38,2.9,7,2.9,6,3.2,6
2015/6/8 11:39,2.8,7,2.9,6,2,9
2015/6/8 11:40,2.7,6,2.8,6,3.9,4
2015/6/8 11:41,2.7,6,2.7,7,4.8,6
2015/6/8 11:42,2.8,6,2.8,7,6.1,4
2015/6/8 11:43,2.8,6,2.8,7,5.1,6
2015/6/8 11:44,2.8,6,2.8,7,6.1,7
2015/6/8 11:45,2.8,6,2.9,7,7.2,7
2015/6/8 11:46,2.9,6,2.9,7,4.5,5
2015/6/8 11:47,2.9,6,2.9,7,6.5,5
2015/6/8 11:48,3,6,3,6,4.3,5
2015/6/8 11:49,3.1,6,3.1,6,4.2,6
2015/6/8 11:50,3.1,6,3.2,6,2.5,5
2015/6/8 11:51,3.1,6,3.2,6,3.7,6
2015/6/8 11:52,3.1,6,3.1,6,6.4,4
2015/6/8 11:53,3.1,6,3.1,6,5.5,7
2015/6/8 11:54,3.1,6,3.1,6,5.8,6
2015/6/8 11:55,2.8,6,3,6,3,5
2015/6/8 11:56,2.6,6,2.8,6,2.5,7
2015/6/8 11:57,2.4,6,2.6,6,3.9,8
2015/6/8 11:58,2.5,6,2.5,6,5.1,8
2015/6/8 11:59,2.6,6,2.6,6,5.4,7
2015/6/8 12:00,2.8,6,2.8,6,6.5,6
2015/6/8 12:01,2.8,6,2.8,6,5,7
2015/6/8 12:02,2.7,7,2.8,6,3.6,6
2015/6/8 12:03,2.7,7,2.7,6,4.9,7
2015/6/8 12:04,2.6,7,2.7,6,3.7,6
2015/6/8 12:05,2.6,7,2.6,6,4.3,7
2015/6/8 12:06,2.7,7,2.7,6,4.8,8
2015/6/8 12:07,2.9,7,2.9,7,6.1,7
2015/6/8 12:08,3.1,7,3.2,7,7.6,8